Fargo, ND

10:26 AM CST on December 08, 2019 (GMT -0600)
Hector International

Weather History for KFAR - October, 2019

Change the Weather History Date:

Saturday, October 19, 2019

  Actual Average Record
Temperature  
Mean Temperature 49 °F 44 °F  
Max Temperature 59 °F 55 °F 84 °F (2003)
Min Temperature 39 °F 34 °F 12 °F (1917)
Degree Days  
Heating Degree Days 16 21  
Month to date heating degree days 374 319  
Since 1 July heating degree days 589 589  
Cooling Degree Days 0 0  
Month to date cooling degree days 0 0  
Year to date cooling degree days 527 548  
Moisture  
Dew Point 38 °F    
Average Humidity 70    
Maximum Humidity 89    
Minimum Humidity 44    
Precipitation  
Precipitation 0.00 in 0.07 in 1.26 in (1934)
Month to date precipitation 3.43 1.47  
Year to date precipitation 28.13 20.07  
Snow  
Snow 0.00 in 0.00 in 0.40 in (1913)
Month to date snowfall 4.5 0.2  
Since 1 July snowfall 4.5 0.2  
Since 1 September snowfall 4.5 0.2  
Snow Depth 0.00 in    
Sea Level Pressure  
Sea Level Pressure 29.62 in    
Wind  
Wind Speed 8 mph ()    
Max Wind Speed 21 mph    
Max Gust Speed 28 mph    
Visibility 10.0 miles    
Events      
T = Trace of Precipitation, MM = Missing Value Source: Averaged Metar Reports

Daily Weather History Graph

Daily Weather History Graph

Search for Another Location

Airport or City:

Astronomy

Oct. 19, 2019 Rise Set
Actual Time 7:50 AM CDT 6:33 PM CDT
Civil Twilight 7:19 AM CDT 7:03 PM CDT
Nautical Twilight 6:44 AM CDT 7:39 PM CDT
Astronomical Twilight 6:09 AM CDT 8:14 PM CDT
Moon 10:26 PM CDT (10/19) 1:40 PM CDT (10/19)
Length of Visible Light 11h 44m
Length of Day
10h 42m
Waning Gibbous, 69% of the Moon is Illuminated
Oct 19
Waning Gibbous
Oct 21
Last Quarter
Oct 27
New
Nov 4
First Quarter
Nov 12
Full

Hourly Weather History & Observations

Time (CDT) Temp. Windchill Dew Point Humidity Pressure Visibility Wind Dir Wind Speed Gust Speed Precip Events Conditions
12:53 AM 50.0 °F - 42.1 °F 74% 29.53 in 10.0 mi WSW 6.9 mph - N/A   Overcast
1:53 AM 48.0 °F - 41.0 °F 77% 29.54 in 10.0 mi WSW 11.5 mph - N/A   Clear
2:53 AM 45.0 °F 40.1 °F 39.9 °F 82% 29.57 in 10.0 mi SW 9.2 mph - N/A   Clear
3:53 AM 43.0 °F 38.2 °F 39.0 °F 86% 29.57 in 10.0 mi SW 8.1 mph - N/A   Clear
4:53 AM 42.1 °F 37.7 °F 39.0 °F 89% 29.59 in 10.0 mi SSW 6.9 mph - N/A   Clear
5:53 AM 42.1 °F 37.7 °F 37.9 °F 85% 29.59 in 10.0 mi WSW 6.9 mph - N/A   Clear
6:53 AM 42.1 °F 36.6 °F 37.0 °F 82% 29.60 in 10.0 mi WSW 9.2 mph - N/A   Clear
7:53 AM 41.0 °F 35.2 °F 36.0 °F 82% 29.61 in 10.0 mi WSW 9.2 mph - N/A   Clear
8:53 AM 44.1 °F 39.0 °F 37.0 °F 76% 29.63 in 10.0 mi WSW 9.2 mph - N/A   Clear
9:53 AM 46.9 °F - 37.0 °F 68% 29.64 in 10.0 mi WSW 12.7 mph - N/A   Clear
10:53 AM 52.0 °F - 37.0 °F 57% 29.64 in 10.0 mi WSW 13.8 mph - N/A   Clear
11:53 AM 54.0 °F - 37.0 °F 53% 29.64 in 10.0 mi WSW 12.7 mph - N/A   Clear
12:53 PM 57.0 °F - 37.9 °F 49% 29.63 in 10.0 mi WSW 15.0 mph - N/A   Clear
1:53 PM 57.9 °F - 37.9 °F 47% 29.62 in 10.0 mi WSW 15.0 mph 24.2 mph N/A   Clear
2:53 PM 59.0 °F - 37.0 °F 44% 29.61 in 10.0 mi WSW 19.6 mph - N/A   Clear
3:53 PM 57.9 °F - 37.0 °F 46% 29.62 in 10.0 mi West 12.7 mph - N/A   Partly Cloudy
4:53 PM 57.0 °F - 37.0 °F 47% 29.62 in 10.0 mi West 13.8 mph - N/A   Clear
5:53 PM 55.0 °F - 39.9 °F 57% 29.64 in 10.0 mi WNW 6.9 mph - N/A   Mostly Cloudy
6:53 PM 51.1 °F - 39.0 °F 63% 29.66 in 10.0 mi West 4.6 mph - N/A   Clear
7:53 PM 45.0 °F 42.6 °F 37.9 °F 76% 29.68 in 10.0 mi West 4.6 mph - N/A   Clear
8:53 PM 42.1 °F 40.2 °F 37.9 °F 85% 29.68 in 10.0 mi South 3.5 mph - N/A   Clear
9:53 PM 41.0 °F 39.0 °F 37.9 °F 89% 29.68 in 10.0 mi SSE 3.5 mph - N/A   Clear
10:53 PM 41.0 °F 36.4 °F 37.0 °F 86% 29.68 in 10.0 mi South 6.9 mph - N/A   Clear
11:53 PM 43.0 °F 38.8 °F 37.0 °F 80% 29.69 in 10.0 mi South 6.9 mph - N/A   Clear